User: anonymous   Login
Location: Campillo
(40.8621°N, 4.2488°W)
Time: 09:17:05
(UTC+00:00)
Language:

Meteor 1-25 Rocket - Orbit

View from above orbital plane
View from above orbital plane
View from above satellite
View from above satellite

Ground track
Ground track

The orbit data is extracted from the following two-line orbital elements,

1 08846U 76043B   21216.58244221  .00000186  00000-0  99992-4 0  9993
2 08846  81.2216 283.0063 0039381  75.7059 284.8479 14.08596335323269
Epoch (UTC): 04 August 2021 13:58:43
Eccentricity: 0.0039381
inclination: 81.2216°
perigee height: 835 km
apogee height: 893 km
right ascension of ascending node: 283.0063°
argument of perigee: 75.7059°
revolutions per day: 14.08596335
mean anomaly at epoch: 284.8479°
orbit number at epoch: 32326

The dashed part of the orbit path shows where the satellite is in the earth's shadow,  

DLR